Weather History for Cape Cod CGAS, MA

Change the Weather History Date:

Thursday, January 16, 2014

  Actual Average Record
Temperature  
Mean Temperature 37 °F -  
Max Temperature 42 °F 32 °F 50 °F (1997)
Min Temperature 32 °F 17 °F -7 °F (2004)
Degree Days  
Heating Degree Days 28    
Moisture  
Dew Point 38 °F    
Average Humidity 97    
Maximum Humidity 100    
Minimum Humidity 87    
Precipitation  
Precipitation 0.00 in - - ()
Sea Level Pressure  
Sea Level Pressure 29.88 in    
Wind  
Wind Speed 3 mph (North)    
Max Wind Speed 10 mph    
Max Gust Speed -    
Visibility 4 miles    
Events Fog    
Averages and records for this station are not official NWS values.
T = Trace of Precipitation, MM = Missing Value Source: NWS Daily Summary

Daily Weather History Graph

Daily Weather History Graph

Search for Another Location

Airport:

Trip Planner

Search our weather history database for the weather conditions in past years. The results will help you decide how hot, cold, wet, or windy it might be!

Date:

Astronomy

Jan. 16, 2014 Rise Set
Actual Time 7:06 AM EST 4:37 PM EST
Civil Twilight 6:35 AM EST 5:08 PM EST
Nautical Twilight 6:01 AM EST 5:42 PM EST
Astronomical Twilight 5:28 AM EST 6:15 PM EST
Moon 5:28 PM EST (1/16) 6:56 AM EST (1/16)
Length of Visible Light 10h 32m
Length of Day
9h 31m
Full, 100% of the Moon is Illuminated
Jan 16
Full
Jan 24
Last Quarter
Jan 30
New
Feb 6
First Quarter
Feb 14
Full

Hourly Weather History & Observations

Time (EST) Temp. Windchill Dew Point Humidity Pressure Visibility Wind Dir Wind Speed Gust Speed Precip Events Conditions
12:15 AM 32.0 °F - 32.0 °F 100% 29.88 in 0.5 mi Calm Calm - N/A Fog Fog
12:35 AM 32.0 °F 28.7 °F 32.0 °F 100% 29.88 in 0.8 mi NNW 3.5 mph - N/A   Overcast
12:55 AM 33.8 °F 30.8 °F 33.8 °F 100% 29.88 in 5.0 mi NE 3.5 mph - N/A   Overcast
1:15 AM 32.0 °F - 32.0 °F 100% 29.88 in 5.0 mi Calm Calm - N/A   Overcast
1:35 AM 33.8 °F - 33.8 °F 100% 29.89 in 7.0 mi Calm Calm - N/A   Overcast
1:55 AM 35.6 °F - 35.6 °F 100% 29.88 in 5.0 mi Calm Calm - N/A   Overcast
2:15 AM 37.4 °F - 37.4 °F 100% 29.87 in 6.0 mi Calm Calm - N/A   Overcast
2:35 AM 35.6 °F 32.8 °F 35.6 °F 100% 29.88 in 4.0 mi NW 3.5 mph - N/A   Overcast
2:55 AM 37.4 °F - 35.6 °F 93% 29.88 in 4.0 mi Calm Calm - N/A   Overcast
3:15 AM 37.4 °F - 37.4 °F 100% 29.88 in 7.0 mi Calm Calm - N/A   Overcast
3:35 AM 37.4 °F 33.8 °F 37.4 °F 100% 29.87 in 10.0 mi North 4.6 mph - N/A   Overcast
3:55 AM 37.4 °F 32.8 °F 37.4 °F 100% 29.85 in 10.0 mi North 5.8 mph - N/A   Overcast
4:15 AM 37.4 °F 33.8 °F 37.4 °F 100% 29.87 in 9.0 mi North 4.6 mph - N/A   Overcast
4:35 AM 37.4 °F 33.8 °F 37.4 °F 100% 29.86 in 6.0 mi North 4.6 mph - N/A   Overcast
4:55 AM 37.4 °F 32.8 °F 37.4 °F 100% 29.85 in 5.0 mi North 5.8 mph - N/A   Overcast
5:15 AM 37.4 °F 33.8 °F 37.4 °F 100% 29.84 in 5.0 mi North 4.6 mph - N/A   Overcast
5:35 AM 37.4 °F 32.8 °F 37.4 °F 100% 29.85 in 2.5 mi North 5.8 mph - N/A   Overcast
5:55 AM 37.4 °F 33.8 °F 37.4 °F 100% 29.85 in 1.0 mi NNE 4.6 mph - N/A   Overcast
6:15 AM 37.4 °F 34.9 °F 37.4 °F 100% 29.86 in 0.5 mi North 3.5 mph - N/A Fog Fog
6:35 AM - - - N/A% - - North - - N/A   Unknown
6:55 AM 39.2 °F - 37.4 °F 93% 29.88 in 4.0 mi Calm Calm - N/A   Mist
7:15 AM 39.2 °F - 37.4 °F 93% 29.88 in 5.0 mi Calm Calm - N/A   Overcast
7:35 AM 39.2 °F 35.9 °F 37.4 °F 93% 29.87 in 3.0 mi NNE 4.6 mph - N/A   Overcast
7:55 AM 39.2 °F 35.9 °F 37.4 °F 93% 29.86 in 1.8 mi North 4.6 mph - N/A   Overcast
8:15 AM 39.2 °F 35.9 °F 39.2 °F 100% 29.84 in 3.0 mi NNE 4.6 mph - N/A   Overcast
8:35 AM 39.2 °F 35.0 °F 39.2 °F 100% 29.84 in 4.0 mi NNE 5.8 mph - N/A   Overcast
8:55 AM 39.2 °F 35.9 °F 39.2 °F 100% 29.88 in 3.0 mi NNW 4.6 mph - N/A   Overcast
9:15 AM 39.2 °F 35.9 °F 39.2 °F 100% 29.87 in 3.0 mi North 4.6 mph - N/A   Overcast
9:35 AM 39.2 °F 37.0 °F 39.2 °F 100% 29.89 in 3.0 mi North 3.5 mph - N/A   Overcast
9:55 AM 39.2 °F 37.0 °F 39.2 °F 100% 29.89 in 3.0 mi North 3.5 mph - N/A   Overcast
10:15 AM 39.2 °F - 39.2 °F 100% 29.90 in 4.0 mi Calm Calm - N/A   Overcast
10:35 AM 41.0 °F 38.0 °F 39.2 °F 93% 29.90 in 5.0 mi NE 4.6 mph - N/A   Overcast
10:55 AM 41.0 °F - 39.2 °F 93% 29.91 in 3.0 mi Calm Calm - N/A   Overcast
11:15 AM 41.0 °F 38.0 °F 41.0 °F 100% 29.89 in 5.0 mi NNW 4.6 mph - N/A   Overcast
11:35 AM 41.0 °F 38.0 °F 41.0 °F 100% 29.88 in 8.0 mi North 4.6 mph - N/A   Overcast
11:55 AM 41.0 °F 38.0 °F 41.0 °F 100% 29.87 in 9.0 mi NNW 4.6 mph - N/A   Overcast
12:15 PM 42.8 °F 39.3 °F 41.0 °F 93% 29.86 in 10.0 mi NNW 5.8 mph - N/A   Mostly Cloudy
12:35 PM 41.0 °F 38.0 °F 41.0 °F 100% 29.85 in 10.0 mi North 4.6 mph - N/A   Scattered Clouds
12:55 PM 42.8 °F 41.1 °F 41.0 °F 93% 29.86 in 10.0 mi North 3.5 mph - N/A   Clear
1:15 PM 42.8 °F 41.1 °F 39.2 °F 87% 29.85 in 10.0 mi NNE 3.5 mph - N/A   Scattered Clouds
1:35 PM 39.2 °F 32.5 °F 37.4 °F 93% 29.84 in 0.8 mi NE 10.4 mph - N/A   Overcast
1:55 PM 39.2 °F 32.5 °F 37.4 °F 93% 29.84 in 2.0 mi NE 10.4 mph - N/A   Overcast
2:15 PM 39.2 °F 32.5 °F 37.4 °F 93% 29.84 in 0.2 mi NE 10.4 mph - N/A Fog Fog
2:35 PM 39.2 °F 33.6 °F 37.4 °F 93% 29.85 in 0.2 mi NNE 8.1 mph - N/A Fog Fog
2:55 PM 39.2 °F 34.2 °F 37.4 °F 93% 29.86 in 0.2 mi NE 6.9 mph - N/A Fog Fog
3:35 PM 39.2 °F 35.9 °F 37.4 °F 93% 29.85 in 0.5 mi North 4.6 mph - N/A Fog Fog
3:55 PM 39.2 °F 35.0 °F 37.4 °F 93% 29.85 in 0.8 mi NNE 5.8 mph - N/A   Overcast
4:15 PM 39.2 °F 35.0 °F 37.4 °F 93% 29.85 in 0.5 mi North 5.8 mph - N/A Fog Fog
4:35 PM 39.2 °F 37.0 °F 37.4 °F 93% 29.85 in 0.2 mi North 3.5 mph - N/A Fog Fog
4:55 PM 39.2 °F 37.0 °F 37.4 °F 93% 29.87 in 0.8 mi NNE 3.5 mph - N/A   Overcast
5:15 PM 39.2 °F 35.0 °F 39.2 °F 100% 29.86 in 0.5 mi NNE 5.8 mph - N/A Fog Fog
5:35 PM 39.2 °F 35.0 °F 39.2 °F 100% 29.86 in 0.5 mi NE 5.8 mph - N/A Fog Fog
5:55 PM 39.2 °F 35.0 °F 39.2 °F 100% 29.86 in 0.8 mi NNE 5.8 mph - N/A   Overcast
6:15 PM 39.2 °F 37.0 °F 39.2 °F 100% 29.87 in 1.0 mi NNE 3.5 mph - N/A   Overcast
6:35 PM 39.2 °F 37.0 °F 39.2 °F 100% 29.88 in 1.0 mi NE 3.5 mph - N/A   Overcast
6:55 PM 39.2 °F 35.9 °F 39.2 °F 100% 29.88 in 0.8 mi ENE 4.6 mph - N/A   Overcast
7:35 PM 39.2 °F 37.0 °F 39.2 °F 100% 29.89 in 0.5 mi NE 3.5 mph - N/A Fog Fog
7:55 PM 39.2 °F 37.0 °F 39.2 °F 100% 29.90 in 0.8 mi NNE 3.5 mph - N/A   Overcast
8:15 PM 39.2 °F - 39.2 °F 100% 29.90 in 0.8 mi Calm Calm - N/A   Overcast
8:35 PM 39.2 °F - 39.2 °F 100% 29.90 in 0.5 mi Calm Calm - N/A Fog Fog
8:55 PM 39.2 °F - 39.2 °F 100% 29.91 in 0.5 mi Calm Calm - N/A Fog Fog
9:15 PM 39.2 °F - 39.2 °F 100% 29.91 in 0.2 mi Calm Calm - N/A Fog Fog
9:35 PM 39.2 °F - 39.2 °F 100% 29.92 in 0.5 mi Calm Calm - N/A Fog Fog
9:55 PM 39.2 °F 37.0 °F 39.2 °F 100% 29.92 in 0.5 mi NW 3.5 mph - N/A Fog Fog
10:15 PM 39.2 °F 37.0 °F 39.2 °F 100% 29.92 in 3.0 mi NNW 3.5 mph - N/A   Overcast
10:35 PM 39.2 °F 37.0 °F 39.2 °F 100% 29.92 in 3.0 mi NW 3.5 mph - N/A   Overcast
10:55 PM 39.2 °F 37.0 °F 39.2 °F 100% 29.92 in 4.0 mi NW 3.5 mph - N/A   Overcast
11:15 PM 39.2 °F - 37.4 °F 93% 29.92 in 8.0 mi Calm Calm - N/A   Overcast
11:35 PM 39.2 °F - 37.4 °F 93% 29.92 in 7.0 mi Calm Calm - N/A   Overcast
11:55 PM 39.2 °F - 37.4 °F 93% 29.93 in 9.0 mi Calm Calm - N/A   Overcast